Location: *
(34.6780°N, 135.8310°E)
Time: 15:19:13
(UTC+00:00)

Centaur D-1AR AC-39 - Pass Details

Date: 18 October 2019
Orbit: 580 x 36202 km, 22.0° (Epoch: 17 November)

Event Time Altitude Azimuth Distance (km) Brightness Sun altitude
Exits shadow 20:35:58 - 237° (WSW) 2,715 4.4 -6.7°
Reaches altitude 10° 20:37:42 10° 221° (SW) 2,069 3.9 -6.4°
Maximum altitude 20:41:09 25° 162° (SSE) 1,852 4.3 -5.7°
Drops below altitude 10° 20:49:07 10° 109° (ESE) 4,994 8.0 -4.0°
Sets 20:58:38 0° 100° (E) 8,962 11.5 -2.1°
